• In Deutschland
  • Länderverzeichnis
  • Für 7 Tage
  • Wassertemperatur
  • Satellitenkarten
  • Wetterkarte
  • Widgets
  • user-avatar
    Anmelden

    Stündliche Wetter Newcastle

    Heute, 25 Mai, Donnerstag

    Zeit Temperatur Niederschläge Wind Luftdruck Luftfeuchtigkeit
    00:00 +12°C° 0 mm 4 m/S 763 mmHg 77%
    01:00 +11°C° 0 mm 4 m/S 763 mmHg 81%
    02:00 +11°C° 0 mm 3 m/S 763 mmHg 84%
    03:00 +10°C° 0 mm 3 m/S 763 mmHg 87%
    04:00 +10°C° 0 mm 3 m/S 763 mmHg 90%
    05:00 +10°C° 0 mm 3 m/S 764 mmHg 90%
    06:00 +10°C° 0 mm 3 m/S 764 mmHg 91%
    07:00 +9°C° 0 mm 3 m/S 764 mmHg 91%
    08:00 +12°C° 0 mm 3 m/S 764 mmHg 82%
    09:00 +14°C° 0 mm 3 m/S 764 mmHg 73%
    10:00 +18°C° 0 mm 3 m/S 764 mmHg 62%
    11:00 +19°C° 0 mm 3 m/S 764 mmHg 58%
    12:00 +20°C° 0 mm 2 m/S 763 mmHg 55%
    13:00 +21°C° 0 mm 2 m/S 763 mmHg 51%
    14:00 +21°C° 0 mm 2 m/S 763 mmHg 56%
    15:00 +20°C° 0 mm 2 m/S 763 mmHg 62%
    16:00 +19°C° 0 mm 1 m/S 763 mmHg 71%
    17:00 +16°C° 0 mm 1 m/S 763 mmHg 78%
    18:00 +14°C° 0 mm 1 m/S 764 mmHg 86%
    19:00 +13°C° 0 mm 1 m/S 764 mmHg 94%
    20:00 +13°C° 0 mm 1 m/S 764 mmHg 95%
    21:00 +12°C° 0 mm 1 m/S 764 mmHg 95%
    22:00 +12°C° 0 mm 1 m/S 764 mmHg 96%
    23:00 +12°C° 0 mm 1 m/S 764 mmHg 95%

    Morgen, 26 Mai, Freitag

    Zeit Temperatur Niederschläge Wind Luftdruck Luftfeuchtigkeit
    00:00 +12°C° 0 mm 2 m/S 764 mmHg 94%
    01:00 +10°C° 0 mm 2 m/S 764 mmHg 93%
    02:00 +10°C° 0 mm 2 m/S 764 mmHg 90%
    03:00 +10°C° 0 mm 2 m/S 764 mmHg 88%
    04:00 +9°C° 0 mm 2 m/S 764 mmHg 85%
    05:00 +9°C° 0 mm 2 m/S 764 mmHg 86%
    06:00 +9°C° 0 mm 2 m/S 764 mmHg 86%
    07:00 +9°C° 0 mm 2 m/S 765 mmHg 86%
    08:00 +12°C° 0 mm 2 m/S 765 mmHg 76%
    09:00 +15°C° 0 mm 2 m/S 765 mmHg 65%
    10:00 +18°C° 0 mm 2 m/S 765 mmHg 55%
    11:00 +19°C° 0 mm 2 m/S 765 mmHg 52%
    12:00 +20°C° 0 mm 2 m/S 764 mmHg 48%
    13:00 +23°C° 0 mm 1 m/S 764 mmHg 44%
    14:00 +21°C° 0 mm 2 m/S 764 mmHg 49%
    15:00 +20°C° 0 mm 2 m/S 764 mmHg 55%
    16:00 +19°C° 0 mm 2 m/S 764 mmHg 60%
    17:00 +17°C° 0 mm 2 m/S 764 mmHg 71%
    18:00 +14°C° 0 mm 2 m/S 765 mmHg 83%
    19:00 +12°C° 0 mm 2 m/S 765 mmHg 95%
    20:00 +11°C° 0 mm 1 m/S 765 mmHg 96%
    21:00 +11°C° 0 mm 1 m/S 766 mmHg 97%
    22:00 +10°C° 0 mm 1 m/S 766 mmHg 98%
    23:00 +10°C° 0 mm 1 m/S 766 mmHg 98%

    übermorgen, 27 Mai, Samstag

    Zeit Temperatur Niederschläge Wind Luftdruck Luftfeuchtigkeit
    00:00 +10°C° 0 mm 1 m/S 766 mmHg 98%
    01:00 +10°C° 0 mm 1 m/S 765 mmHg 98%
    02:00 +10°C° 0 mm 1 m/S 765 mmHg 98%
    03:00 +10°C° 0 mm 1 m/S 765 mmHg 98%
    04:00 +8°C° 0 mm 2 m/S 765 mmHg 98%
    05:00 +9°C° 0 mm 1 m/S 765 mmHg 98%
    06:00 +9°C° 0 mm 1 m/S 765 mmHg 99%
    07:00 +9°C° 0 mm 1 m/S 766 mmHg 99%
    08:00 +12°C° 0 mm 1 m/S 766 mmHg 88%
    09:00 +15°C° 0 mm 1 m/S 766 mmHg 77%
    10:00 +20°C° 0 mm 1 m/S 766 mmHg 67%
    11:00 +21°C° 0 mm 1 m/S 765 mmHg 61%
    12:00 +22°C° 0 mm 1 m/S 764 mmHg 56%
    13:00 +23°C° 0 mm 1 m/S 763 mmHg 50%
    14:00 +23°C° 0 mm 2 m/S 763 mmHg 56%
    15:00 +21°C° 0 mm 2 m/S 763 mmHg 61%
    16:00 +20°C° 0 mm 2 m/S 762 mmHg 66%
    17:00 +18°C° 0 mm 3 m/S 763 mmHg 75%
    18:00 +16°C° 0 mm 3 m/S 763 mmHg 83%
    19:00 +14°C° 0 mm 3 m/S 763 mmHg 91%
    20:00 +13°C° 0,1 mm 3 m/S 763 mmHg 92%
    21:00 +13°C° 0,1 mm 3 m/S 763 mmHg 93%
    22:00 +13°C° 0,1 mm 4 m/S 763 mmHg 94%
    23:00 +13°C° 0 mm 3 m/S 763 mmHg 91%

    28 Mai, Sonntag

    Zeit Temperatur Niederschläge Wind Luftdruck Luftfeuchtigkeit
    00:00 +12°C° 0 mm 3 m/S 763 mmHg 88%
    01:00 +12°C° 0 mm 3 m/S 762 mmHg 85%
    02:00 +11°C° 0 mm 3 m/S 762 mmHg 84%
    03:00 +11°C° 0 mm 3 m/S 762 mmHg 84%
    04:00 +11°C° 0 mm 3 m/S 762 mmHg 83%
    05:00 +11°C° 0 mm 3 m/S 762 mmHg 84%
    06:00 +10°C° 0 mm 4 m/S 762 mmHg 86%
    07:00 +10°C° 0 mm 4 m/S 762 mmHg 87%
    08:00 +13°C° 0 mm 4 m/S 762 mmHg 77%
    09:00 +15°C° 0 mm 4 m/S 762 mmHg 67%
    10:00 +18°C° 0 mm 4 m/S 762 mmHg 58%
    11:00 +20°C° 0 mm 4 m/S 761 mmHg 52%
    12:00 +21°C° 0 mm 4 m/S 761 mmHg 46%
    13:00 +23°C° 0 mm 4 m/S 760 mmHg 40%
    14:00 +22°C° 0 mm 3 m/S 760 mmHg 44%
    15:00 +21°C° 0 mm 3 m/S 760 mmHg 49%
    16:00 +20°C° 0 mm 2 m/S 760 mmHg 53%
    17:00 +18°C° 0 mm 3 m/S 760 mmHg 58%
    18:00 +16°C° 0 mm 3 m/S 760 mmHg 62%
    19:00 +13°C° 0 mm 3 m/S 761 mmHg 67%
    20:00 +13°C° 0 mm 3 m/S 761 mmHg 69%
    21:00 +13°C° 0 mm 4 m/S 761 mmHg 70%
    22:00 +12°C° 0 mm 4 m/S 762 mmHg 72%
    23:00 +12°C° 0 mm 4 m/S 762 mmHg 73%

    29 Mai, Montag

    Zeit Temperatur Niederschläge Wind Luftdruck Luftfeuchtigkeit
    00:00 +12°C° 0 mm 4 m/S 762 mmHg 74%
    01:00 +11°C° 0 mm 4 m/S 762 mmHg 75%
    02:00 +11°C° 0 mm 4 m/S 762 mmHg 77%
    03:00 +11°C° 0 mm 4 m/S 762 mmHg 79%
    04:00 +11°C° 0 mm 4 m/S 762 mmHg 80%
    05:00 +10°C° 0 mm 4 m/S 762 mmHg 82%
    06:00 +10°C° 0 mm 4 m/S 763 mmHg 84%
    07:00 +10°C° 0 mm 4 m/S 763 mmHg 85%
    08:00 +11°C° 0 mm 4 m/S 764 mmHg 75%
    09:00 +13°C° 0 mm 4 m/S 764 mmHg 65%
    10:00 +15°C° 0 mm 4 m/S 764 mmHg 55%
    11:00 +17°C° 0 mm 4 m/S 763 mmHg 50%
    12:00 +18°C° 0 mm 4 m/S 763 mmHg 45%
    13:00 +19°C° 0 mm 3 m/S 763 mmHg 40%
    14:00 +19°C° 0 mm 3 m/S 763 mmHg 45%
    15:00 +18°C° 0 mm 2 m/S 763 mmHg 49%
    16:00 +18°C° 0 mm 2 m/S 763 mmHg 54%
    17:00 +16°C° 0 mm 2 m/S 764 mmHg 58%
    18:00 +14°C° 0 mm 2 m/S 764 mmHg 62%
    19:00 +11°C° 0 mm 3 m/S 765 mmHg 66%
    20:00 +10°C° 0 mm 3 m/S 765 mmHg 68%
    21:00 +10°C° 0 mm 3 m/S 766 mmHg 69%
    22:00 +10°C° 0 mm 4 m/S 766 mmHg 71%
    23:00 +8°C° 0 mm 4 m/S 766 mmHg 73%

    30 Mai, Dienstag

    Zeit Temperatur Niederschläge Wind Luftdruck Luftfeuchtigkeit
    00:00 +8°C° 0 mm 3 m/S 766 mmHg 76%
    01:00 +8°C° 0 mm 3 m/S 766 mmHg 78%
    02:00 +8°C° 0 mm 3 m/S 766 mmHg 80%
    03:00 +7°C° 0 mm 3 m/S 766 mmHg 82%
    04:00 +7°C° 0 mm 3 m/S 766 mmHg 83%
    05:00 +6°C° 0 mm 4 m/S 766 mmHg 83%
    06:00 +6°C° 0 mm 4 m/S 766 mmHg 83%
    07:00 +6°C° 0 mm 4 m/S 766 mmHg 82%
    08:00 +10°C° 0 mm 4 m/S 766 mmHg 73%
    09:00 +12°C° 0 mm 5 m/S 766 mmHg 64%
    10:00 +14°C° 0 mm 5 m/S 766 mmHg 55%
    11:00 +15°C° 0 mm 5 m/S 766 mmHg 52%
    12:00 +16°C° 0 mm 5 m/S 765 mmHg 49%
    13:00 +19°C° 0 mm 4 m/S 764 mmHg 46%
    14:00 +18°C° 0 mm 4 m/S 764 mmHg 48%
    15:00 +18°C° 0 mm 4 m/S 764 mmHg 51%
    16:00 +18°C° 0 mm 4 m/S 764 mmHg 54%
    17:00 +15°C° 0 mm 4 m/S 765 mmHg 58%
    18:00 +13°C° 0 mm 4 m/S 765 mmHg 63%
    19:00 +12°C° 0 mm 5 m/S 766 mmHg 67%
    20:00 +12°C° 0 mm 5 m/S 766 mmHg 69%
    21:00 +10°C° 0 mm 5 m/S 766 mmHg 71%
    22:00 +10°C° 0 mm 5 m/S 766 mmHg 73%
    23:00 +10°C° 0 mm 5 m/S 766 mmHg 74%
    Mehr zeigen